Time,TemperatureF,DewpointF,PressureIn,WindDirection,WindDirectionDegrees,WindSpeedMPH,WindSpeedGustMPH,Humidity,HourlyPrecipIn,Conditions,Clouds,dailyrainin,SoftwareType,DateUTC
2013-02-01 00:03:00,30.0,10.0,29.77,WSW,239,3.0,16.0,43,0.00,,,0.69,,2013-02-01 05:03:00,
2013-02-01 00:12:00,30.0,10.0,29.77,WSW,239,3.0,16.0,43,0.00,,,0.69,,2013-02-01 05:12:00,
2013-02-01 00:22:00,30.0,11.0,29.78,WNW,302,1.0,9.0,44,0.00,,,0.67,,2013-02-01 05:22:00,
2013-02-01 00:32:00,30.0,11.0,29.78,WNW,302,1.0,9.0,44,0.00,,,0.67,,2013-02-01 05:32:00,
2013-02-01 00:42:00,30.0,11.0,29.78,WNW,302,1.0,9.0,44,0.00,,,0.67,,2013-02-01 05:42:00,
2013-02-01 00:52:00,29.0,13.0,29.78,NNW,337,3.0,9.0,50,0.00,,,0.67,,2013-02-01 05:52:00,
2013-02-01 01:02:00,29.0,13.0,29.79,NW,312,1.0,19.0,50,0.00,,,0.67,,2013-02-01 06:02:00,
2013-02-01 01:12:00,29.0,13.0,29.79,NW,312,1.0,19.0,50,0.00,,,0.67,,2013-02-01 06:12:00,
2013-02-01 01:22:00,29.0,13.0,29.79,SW,218,2.0,9.0,50,0.00,,,0.57,,2013-02-01 06:22:00,
2013-02-01 01:32:00,29.0,13.0,29.79,NW,311,2.0,12.0,51,0.00,,,0.57,,2013-02-01 06:32:00,
2013-02-01 01:42:00,29.0,13.0,29.79,NW,311,2.0,12.0,51,0.00,,,0.57,,2013-02-01 06:42:00,
2013-02-01 01:52:00,29.0,13.0,29.80,WNW,302,2.0,7.0,51,0.00,,,0.57,,2013-02-01 06:52:00,
2013-02-01 02:02:00,29.0,13.0,29.80,NW,326,3.0,8.0,51,0.00,,,0.57,,2013-02-01 07:02:00,
2013-02-01 02:12:00,29.0,13.0,29.80,NW,326,3.0,8.0,51,0.00,,,0.57,,2013-02-01 07:12:00,
2013-02-01 02:22:00,29.0,13.0,29.80,NW,326,2.0,12.0,51,0.00,,,0.53,,2013-02-01 07:22:00,
2013-02-01 02:32:00,29.0,13.0,29.80,ENE,63,3.0,11.0,50,0.00,,,0.53,,2013-02-01 07:32:00,
2013-02-01 02:42:00,29.0,13.0,29.80,ENE,63,3.0,11.0,50,0.00,,,0.53,,2013-02-01 07:42:00,
2013-02-01 02:51:00,29.0,13.0,29.80,ENE,63,3.0,11.0,50,0.00,,,0.53,,2013-02-01 07:51:00,
2013-02-01 03:01:00,29.0,13.0,29.80,WSW,245,1.0,7.0,51,0.00,,,0.53,,2013-02-01 08:01:00,
2013-02-01 03:11:00,29.0,13.0,29.80,WSW,245,1.0,7.0,51,0.00,,,0.53,,2013-02-01 08:11:00,
2013-02-01 03:21:00,29.0,13.0,29.79,WNW,291,0.0,9.0,51,0.00,,,0.51,,2013-02-01 08:21:00,
2013-02-01 03:32:00,29.0,13.0,29.79,SE,139,0.0,6.0,51,0.00,,,0.51,,2013-02-01 08:32:00,
2013-02-01 03:42:00,29.0,13.0,29.79,SE,139,0.0,6.0,51,0.00,,,0.51,,2013-02-01 08:42:00,
2013-02-01 03:52:00,29.0,13.0,29.78,WSW,256,1.0,6.0,51,0.00,,,0.51,,2013-02-01 08:52:00,
2013-02-01 04:02:00,29.0,13.0,29.78,WSW,256,1.0,6.0,51,0.00,,,0.51,,2013-02-01 09:02:00,
2013-02-01 04:11:00,29.0,13.0,29.78,WSW,256,1.0,6.0,51,0.00,,,0.51,,2013-02-01 09:11:00,
2013-02-01 04:21:00,29.0,13.0,29.78,SE,124,0.0,6.0,51,0.00,,,0.51,,2013-02-01 09:21:00,
2013-02-01 04:32:00,29.0,13.0,29.79,South,187,1.0,5.0,50,0.00,,,0.43,,2013-02-01 09:32:00,
2013-02-01 04:42:00,29.0,13.0,29.79,South,187,1.0,5.0,50,0.00,,,0.43,,2013-02-01 09:42:00,
2013-02-01 04:51:00,29.0,13.0,29.79,ESE,119,1.0,5.0,50,0.00,,,0.43,,2013-02-01 09:51:00,
2013-02-01 05:01:00,29.0,13.0,29.79,ESE,119,1.0,5.0,50,0.00,,,0.43,,2013-02-01 10:01:00,
2013-02-01 05:11:00,29.0,13.0,29.79,ESE,119,1.0,5.0,50,0.00,,,0.43,,2013-02-01 10:11:00,
2013-02-01 05:21:00,29.0,13.0,29.80,ESE,122,1.0,6.0,51,0.00,,,0.10,,2013-02-01 10:21:00,
2013-02-01 05:32:00,29.0,13.0,29.80,ESE,122,1.0,6.0,51,0.00,,,0.10,,2013-02-01 10:32:00,
2013-02-01 05:43:00,29.0,13.0,29.80,ESE,122,1.0,6.0,51,0.00,,,0.10,,2013-02-01 10:43:00,
2013-02-01 05:53:00,29.0,14.0,29.80,SSW,210,1.0,8.0,52,0.00,,,0.10,,2013-02-01 10:53:00,
2013-02-01 06:02:00,29.0,14.0,29.81,South,179,1.0,8.0,53,0.00,,,0.10,,2013-02-01 11:02:00,
2013-02-01 06:11:00,29.0,14.0,29.81,South,179,1.0,8.0,53,0.00,,,0.10,,2013-02-01 11:11:00,
2013-02-01 06:22:00,29.0,14.0,29.81,South,169,0.0,10.0,53,0.00,,,0.10,,2013-02-01 11:22:00,
2013-02-01 06:32:00,29.0,14.0,29.82,SE,139,2.0,5.0,52,0.00,,,0.03,,2013-02-01 11:32:00,
2013-02-01 06:42:00,29.0,14.0,29.82,SE,139,2.0,5.0,52,0.00,,,0.03,,2013-02-01 11:42:00,
2013-02-01 06:53:00,29.0,14.0,29.82,South,187,2.0,8.0,52,0.00,,,0.03,,2013-02-01 11:53:00,
2013-02-01 07:03:00,29.0,13.0,29.82,West,280,2.0,7.0,51,0.00,,,0.03,,2013-02-01 12:03:00,
2013-02-01 07:12:00,29.0,13.0,29.82,West,280,2.0,7.0,51,0.00,,,0.03,,2013-02-01 12:12:00,
2013-02-01 07:23:00,29.0,13.0,29.83,North,353,2.0,6.0,51,0.00,,,0.03,,2013-02-01 12:23:00,
2013-02-01 07:32:00,29.0,14.0,29.83,SE,127,2.0,6.0,52,0.00,,,0.00,,2013-02-01 12:32:00,
2013-02-01 07:42:00,29.0,14.0,29.83,SE,127,2.0,6.0,52,0.00,,,0.00,,2013-02-01 12:42:00,
2013-02-01 07:52:00,29.0,13.0,29.84,WSW,253,2.0,8.0,51,0.00,,,0.00,,2013-02-01 12:52:00,
2013-02-01 08:02:00,29.0,13.0,29.83,NNW,342,0.0,7.0,51,0.00,,,0.00,,2013-02-01 13:02:00,
2013-02-01 08:12:00,29.0,13.0,29.83,NNW,342,0.0,7.0,51,0.00,,,0.00,,2013-02-01 13:12:00,
2013-02-01 08:22:00,29.0,13.0,29.83,NW,307,3.0,11.0,51,0.00,,,0.00,,2013-02-01 13:22:00,
2013-02-01 08:33:00,29.0,13.0,29.83,SW,233,0.0,8.0,50,0.00,,,0.00,,2013-02-01 13:33:00,
2013-02-01 08:42:00,29.0,13.0,29.83,SW,233,0.0,8.0,50,0.00,,,0.00,,2013-02-01 13:42:00,
2013-02-01 08:53:00,29.0,12.0,29.84,North,8,3.0,11.0,48,0.00,,,0.00,,2013-02-01 13:53:00,
2013-02-01 09:03:00,30.0,12.0,29.84,WNW,293,3.0,9.0,47,0.00,,,0.00,,2013-02-01 14:03:00,
2013-02-01 09:12:00,30.0,12.0,29.84,WNW,293,3.0,9.0,47,0.00,,,0.00,,2013-02-01 14:12:00,
2013-02-01 09:22:00,29.0,11.0,29.84,NW,321,4.0,11.0,47,0.00,,,0.00,,2013-02-01 14:22:00,
2013-02-01 09:32:00,29.0,10.0,29.84,NW,326,10.0,16.0,44,0.00,,,0.00,,2013-02-01 14:32:00,
2013-02-01 09:42:00,29.0,10.0,29.84,NW,326,10.0,16.0,44,0.00,,,0.00,,2013-02-01 14:42:00,
2013-02-01 09:52:00,29.0,11.0,29.84,NW,314,7.0,15.0,47,0.00,,,0.00,,2013-02-01 14:52:00,
2013-02-01 10:03:00,29.0,12.0,29.85,NW,309,7.0,15.0,49,0.00,,,0.00,,2013-02-01 15:03:00,
2013-02-01 10:12:00,29.0,11.0,29.86,North,351,6.0,14.0,47,0.00,,,0.00,,2013-02-01 15:12:00,
2013-02-01 10:22:00,29.0,11.0,29.86,North,351,6.0,14.0,47,0.00,,,0.00,,2013-02-01 15:22:00,
2013-02-01 10:33:00,29.0,9.0,29.86,NNE,15,7.0,15.0,43,0.00,,,0.00,,2013-02-01 15:33:00,
2013-02-01 10:42:00,29.0,9.0,29.86,NNE,15,7.0,15.0,43,0.00,,,0.00,,2013-02-01 15:42:00,
2013-02-01 10:52:00,29.0,9.0,29.86,NW,321,6.0,18.0,43,0.00,,,0.00,,2013-02-01 15:52:00,
2013-02-01 11:03:00,29.0,10.0,29.86,NNW,342,6.0,20.0,44,0.00,,,0.00,,2013-02-01 16:03:00,
2013-02-01 11:12:00,29.0,9.0,29.85,NNW,330,5.0,12.0,43,0.00,,,0.00,,2013-02-01 16:12:00,
2013-02-01 11:22:00,29.0,9.0,29.85,NNW,330,5.0,12.0,43,0.00,,,0.00,,2013-02-01 16:22:00,
2013-02-01 11:33:00,29.0,9.0,29.85,NNW,330,5.0,12.0,43,0.00,,,0.00,,2013-02-01 16:33:00,
2013-02-01 11:43:00,29.0,8.0,29.85,NW,315,10.0,19.0,40,0.00,,,0.00,,2013-02-01 16:43:00,
2013-02-01 11:52:00,29.0,8.0,29.85,NW,315,10.0,19.0,40,0.00,,,0.00,,2013-02-01 16:52:00,
2013-02-01 12:03:00,29.0,8.0,29.84,NNW,345,6.0,18.0,41,0.00,,,0.00,,2013-02-01 17:03:00,
2013-02-01 12:12:00,29.0,8.0,29.84,NNW,345,6.0,18.0,41,0.00,,,0.00,,2013-02-01 17:12:00,
2013-02-01 12:22:00,29.0,7.0,29.84,NNW,328,13.0,20.0,39,0.00,,,0.00,,2013-02-01 17:22:00,
2013-02-01 12:32:00,30.0,7.0,29.84,NW,323,9.0,18.0,37,0.00,,,0.00,,2013-02-01 17:32:00,
2013-02-01 12:42:00,30.0,7.0,29.84,NW,323,9.0,18.0,37,0.00,,,0.00,,2013-02-01 17:42:00,
2013-02-01 12:52:00,30.0,7.0,29.85,NW,311,9.0,23.0,37,0.00,,,0.00,,2013-02-01 17:52:00,
2013-02-01 13:03:00,30.0,6.0,29.85,WSW,247,12.0,23.0,35,0.00,,,0.00,,2013-02-01 18:03:00,
2013-02-01 13:12:00,30.0,6.0,29.85,WSW,247,12.0,23.0,35,0.00,,,0.00,,2013-02-01 18:12:00,
2013-02-01 13:23:00,30.0,6.0,29.85,NNW,333,8.0,22.0,35,0.00,,,0.00,,2013-02-01 18:23:00,
2013-02-01 13:32:00,30.0,6.0,29.85,NNW,339,9.0,19.0,35,0.00,,,0.00,,2013-02-01 18:32:00,
2013-02-01 13:42:00,30.0,6.0,29.85,NNW,339,9.0,19.0,35,0.00,,,0.00,,2013-02-01 18:42:00,
2013-02-01 13:52:00,30.0,4.0,29.86,NNW,347,10.0,22.0,33,0.00,,,0.00,,2013-02-01 18:52:00,
2013-02-01 14:03:00,31.0,5.0,29.87,NW,314,10.0,23.0,32,0.00,,,0.00,,2013-02-01 19:03:00,
2013-02-01 14:12:00,31.0,5.0,29.87,NW,314,10.0,23.0,32,0.00,,,0.00,,2013-02-01 19:12:00,
2013-02-01 14:22:00,30.0,6.0,29.88,NNW,328,11.0,25.0,35,0.00,,,0.00,,2013-02-01 19:22:00,
2013-02-01 14:32:00,30.0,8.0,29.88,NW,326,8.0,18.0,39,0.00,,,0.00,,2013-02-01 19:32:00,
2013-02-01 14:42:00,30.0,8.0,29.88,NW,326,8.0,18.0,39,0.00,,,0.00,,2013-02-01 19:42:00,
2013-02-01 14:51:00,30.0,5.0,29.89,NW,323,9.0,20.0,34,0.00,,,0.00,,2013-02-01 19:51:00,
2013-02-01 15:02:00,31.0,6.0,29.90,NW,316,4.0,21.0,34,0.00,,,0.00,,2013-02-01 20:02:00,
2013-02-01 15:11:00,31.0,6.0,29.90,NW,316,4.0,21.0,34,0.00,,,0.00,,2013-02-01 20:11:00,
2013-02-01 15:22:00,31.0,6.0,29.91,NNW,328,8.0,13.0,34,0.00,,,0.00,,2013-02-01 20:22:00,
2013-02-01 15:32:00,29.0,10.0,29.92,NW,326,9.0,20.0,44,0.00,,,0.00,,2013-02-01 20:32:00,
2013-02-01 15:42:00,29.0,10.0,29.92,NW,326,9.0,20.0,44,0.00,,,0.00,,2013-02-01 20:42:00,
2013-02-01 15:52:00,30.0,10.0,29.93,NNW,330,5.0,12.0,42,0.00,,,0.00,,2013-02-01 20:52:00,
2013-02-01 16:02:00,29.0,10.0,29.95,NW,312,11.0,19.0,44,0.00,,,0.00,,2013-02-01 21:02:00,
2013-02-01 16:12:00,29.0,10.0,29.95,NW,312,11.0,19.0,44,0.00,,,0.00,,2013-02-01 21:12:00,
2013-02-01 16:22:00,29.0,8.0,29.95,NW,314,8.0,19.0,41,0.00,,,0.00,,2013-02-01 21:22:00,
2013-02-01 16:32:00,29.0,8.0,29.96,NW,323,5.0,24.0,40,0.00,,,0.00,,2013-02-01 21:32:00,
2013-02-01 16:42:00,29.0,8.0,29.96,NW,323,5.0,24.0,40,0.00,,,0.00,,2013-02-01 21:42:00,
2013-02-01 16:52:00,29.0,8.0,29.97,NNW,330,9.0,20.0,40,0.00,,,0.00,,2013-02-01 21:52:00,
2013-02-01 17:03:00,29.0,8.0,29.97,NNW,330,9.0,20.0,40,0.00,,,0.00,,2013-02-01 22:03:00,
2013-02-01 17:11:00,29.0,8.0,29.97,NNW,330,9.0,20.0,40,0.00,,,0.00,,2013-02-01 22:11:00,
2013-02-01 17:22:00,28.0,8.0,29.99,WNW,287,6.0,16.0,43,0.00,,,0.00,,2013-02-01 22:22:00,
2013-02-01 17:32:00,28.0,9.0,30.01,NNW,328,6.0,16.0,44,0.00,,,0.00,,2013-02-01 22:32:00,
2013-02-01 17:42:00,28.0,9.0,30.01,NNW,328,6.0,16.0,44,0.00,,,0.00,,2013-02-01 22:42:00,
2013-02-01 17:52:00,28.0,11.0,30.02,North,353,7.0,21.0,48,0.00,,,0.00,,2013-02-01 22:52:00,
2013-02-01 18:02:00,27.0,13.0,30.03,NNW,347,12.0,20.0,56,0.00,,,0.00,,2013-02-01 23:02:00,
2013-02-01 18:11:00,27.0,13.0,30.03,NNW,347,12.0,20.0,56,0.00,,,0.00,,2013-02-01 23:11:00,
2013-02-01 18:22:00,27.0,13.0,30.05,NNW,332,5.0,15.0,56,0.00,,,0.00,,2013-02-01 23:22:00,
2013-02-01 18:32:00,27.0,14.0,30.06,NNW,338,6.0,13.0,57,0.00,,,0.00,,2013-02-01 23:32:00,
2013-02-01 18:42:00,27.0,14.0,30.06,NNW,338,6.0,13.0,57,0.00,,,0.00,,2013-02-01 23:42:00,
2013-02-01 18:52:00,27.0,13.0,30.07,WNW,303,6.0,15.0,56,0.00,,,0.00,,2013-02-01 23:52:00,
2013-02-01 19:02:00,27.0,13.0,30.08,NW,304,5.0,14.0,54,0.00,,,0.00,,2013-02-02 00:02:00,
2013-02-01 19:11:00,27.0,13.0,30.08,NW,304,5.0,14.0,54,0.00,,,0.00,,2013-02-02 00:11:00,
2013-02-01 19:22:00,27.0,14.0,30.09,WNW,302,6.0,13.0,58,0.00,,,0.00,,2013-02-02 00:22:00,
2013-02-01 19:32:00,26.0,14.0,30.10,NW,311,5.0,12.0,59,0.00,,,0.00,,2013-02-02 00:32:00,
2013-02-01 19:42:00,26.0,14.0,30.10,NW,311,5.0,12.0,59,0.00,,,0.00,,2013-02-02 00:42:00,
2013-02-01 19:52:00,26.0,13.0,30.11,NW,314,6.0,15.0,58,0.00,,,0.00,,2013-02-02 00:52:00,
2013-02-01 20:03:00,26.0,13.0,30.11,WNW,300,8.0,17.0,57,0.00,,,0.00,,2013-02-02 01:03:00,
2013-02-01 20:11:00,26.0,13.0,30.11,WNW,300,8.0,17.0,57,0.00,,,0.00,,2013-02-02 01:11:00,
2013-02-01 20:21:00,26.0,11.0,30.12,WNW,302,6.0,16.0,52,0.00,,,0.00,,2013-02-02 01:21:00,
2013-02-01 20:32:00,26.0,11.0,30.13,NW,323,4.0,15.0,53,0.00,,,0.00,,2013-02-02 01:32:00,
2013-02-01 20:42:00,26.0,11.0,30.13,NW,323,4.0,15.0,53,0.00,,,0.00,,2013-02-02 01:42:00,
2013-02-01 20:52:00,26.0,11.0,30.14,NW,314,7.0,16.0,53,0.00,,,0.00,,2013-02-02 01:52:00,
2013-02-01 21:01:00,26.0,12.0,30.14,WNW,303,9.0,16.0,55,0.00,,,0.00,,2013-02-02 02:01:00,
2013-02-01 21:11:00,26.0,12.0,30.14,WNW,303,9.0,16.0,55,0.00,,,0.00,,2013-02-02 02:11:00,
2013-02-01 21:22:00,26.0,14.0,30.15,WNW,291,5.0,14.0,59,0.00,,,0.00,,2013-02-02 02:22:00,
2013-02-01 21:32:00,25.0,13.0,30.16,NNW,328,3.0,9.0,61,0.00,,,0.00,,2013-02-02 02:32:00,
2013-02-01 21:42:00,25.0,13.0,30.16,NNW,328,3.0,9.0,61,0.00,,,0.00,,2013-02-02 02:42:00,
2013-02-01 21:52:00,25.0,15.0,30.16,NW,319,1.0,7.0,64,0.00,,,0.00,,2013-02-02 02:52:00,
2013-02-01 22:02:00,25.0,14.0,30.16,West,278,3.0,10.0,63,0.00,,,0.00,,2013-02-02 03:02:00,
2013-02-01 22:11:00,25.0,14.0,30.16,West,278,3.0,10.0,63,0.00,,,0.00,,2013-02-02 03:11:00,
2013-02-01 22:22:00,25.0,14.0,30.17,NNW,335,3.0,9.0,63,0.00,,,0.00,,2013-02-02 03:22:00,
2013-02-01 22:32:00,25.0,14.0,30.18,NW,307,1.0,12.0,62,0.00,,,0.00,,2013-02-02 03:32:00,
2013-02-01 22:42:00,25.0,14.0,30.18,NNE,33,0.0,8.0,62,0.00,,,0.00,,2013-02-02 03:42:00,
2013-02-01 22:52:00,25.0,14.0,30.18,NNE,33,0.0,8.0,62,0.00,,,0.00,,2013-02-02 03:52:00,
2013-02-01 23:02:00,25.0,13.0,30.19,NW,314,3.0,12.0,59,0.00,,,0.00,,2013-02-02 04:02:00,
2013-02-01 23:11:00,25.0,13.0,30.19,NW,314,3.0,12.0,59,0.00,,,0.00,,2013-02-02 04:11:00,
2013-02-01 23:22:00,24.0,12.0,30.19,NW,314,2.0,10.0,60,0.00,,,0.00,,2013-02-02 04:22:00,
2013-02-01 23:32:00,24.0,12.0,30.20,WNW,302,1.0,9.0,59,0.00,,,0.00,,2013-02-02 04:32:00,
2013-02-01 23:42:00,24.0,12.0,30.20,WNW,302,1.0,9.0,59,0.00,,,0.00,,2013-02-02 04:42:00,
2013-02-01 23:52:00,24.0,11.0,30.20,North,357,6.0,18.0,56,0.00,,,0.00,,2013-02-02 04:52:00,